{"data":{"norad_id":65392,"epoch":"2026-05-25T02:40:10.348896Z","epoch_age_seconds":58638,"freshness":"FRESH","line1":"1 65392U 25191P   26145.11123089  .00003318  00000+0  23388-3 0  9997","line2":"2 65392  97.4520  16.5572 0002165  87.5050 272.6425 15.05656902 41775","mean_motion":15.05656902,"eccentricity":0.0002165,"inclination_deg":97.452,"raan_deg":16.5572,"arg_perigee_deg":87.505,"mean_anomaly_deg":272.6425,"bstar":0.00023388,"rev_number":4177,"period_min":95.639318498604,"perigee_km":547.99015167746,"apogee_km":550.98981416106,"semimajor_km":6927.6269829193,"source":"CELESTRAK","updated_at":"2026-05-25T13:38:20.774683Z"}}